Change the Weather History Date:

Saturday, July 27, 2013

  Actual Average Record
Temperature  
Mean Temperature 50 °F -  
Max Temperature 57 °F 73 °F 91 °F (1983)
Min Temperature 45 °F 54 °F 42 °F (2005)
Degree Days  
Heating Degree Days 15    
Moisture  
Dew Point 47 °F    
Average Humidity 91    
Maximum Humidity 100    
Minimum Humidity 72    
Precipitation  
Precipitation 0.12 in - - ()
Sea Level Pressure  
Sea Level Pressure 29.86 in    
Wind  
Wind Speed 9 mph (NW)    
Max Wind Speed 13 mph    
Max Gust Speed 22 mph    
Visibility 6 miles    
Events Rain    
Averages and records for this station are not official NWS values.
T = Trace of Precipitation, MM = Missing Value Source: NWS Daily Summary

Daily Weather History Graph

Daily Weather History Graph

Search for Another Location

Airport or City:

Trip Planner

Search our weather history database for the weather conditions in past years. The results will help you decide how hot, cold, wet, or windy it might be!

Date:

Astronomy

Jul. 27, 2013 Rise Set
Actual Time 6:27 AM EDT 9:33 PM EDT
Civil Twilight 5:50 AM EDT 10:09 PM EDT
Nautical Twilight 5:03 AM EDT 10:56 PM EDT
Astronomical Twilight 4:05 AM EDT 11:53 PM EDT
Moon 11:51 PM EDT 12:34 PM EDT
Length of Visible Light 16h 18m
Length of Day
15h 06m
Waning Gibbous, 71% of the Moon is Illuminated
Jul 27
Waning Gibbous
Jul 29
Last Quarter
Aug 6
New
Aug 14
First Quarter
Aug 20
Full

Hourly Weather History & Observations

Time (EDT) Temp. Windchill Dew Point Humidity Pressure Visibility Wind Dir Wind Speed Gust Speed Precip Events Conditions
12:11 AM 46.4 °F 40.7 °F 44.6 °F 93% 29.93 in 1.8 mi NW 12.7 mph 19.6 mph 0.01 in Rain Light Rain
12:53 AM 46.9 °F - 46.0 °F 97% 29.94 in 1.8 mi NW 11.5 mph 21.9 mph 0.02 in Rain Light Rain
1:53 AM 46.9 °F - 46.0 °F 97% 29.92 in 1.5 mi NW 11.5 mph - 0.02 in Rain Light Rain
2:08 AM 46.4 °F 40.7 °F 46.4 °F 100% 29.90 in 2.0 mi NW 12.7 mph - 0.00 in   Overcast
2:20 AM 46.4 °F 41.1 °F 46.4 °F 100% 29.90 in 1.5 mi NW 11.5 mph 19.6 mph 0.00 in   Overcast
2:34 AM 46.4 °F 41.5 °F 46.4 °F 100% 29.90 in 2.5 mi NW 10.4 mph - 0.01 in   Overcast
2:53 AM 46.9 °F - 46.0 °F 97% 29.91 in 2.5 mi NW 12.7 mph - 0.01 in Rain Light Rain
3:07 AM 46.4 °F 40.7 °F 46.4 °F 100% 29.89 in 4.0 mi NW 12.7 mph - 0.00 in   Overcast
3:53 AM 46.9 °F - 46.0 °F 97% 29.89 in 7.0 mi WNW 9.2 mph - 0.00 in   Overcast
4:48 AM 46.4 °F 41.9 °F 46.4 °F 100% 29.86 in 2.5 mi NW 9.2 mph - 0.01 in   Overcast
4:53 AM 46.9 °F - 46.0 °F 97% 29.88 in 1.8 mi NW 10.4 mph - 0.01 in   Overcast
5:22 AM 46.4 °F 41.5 °F 46.4 °F 100% 29.85 in 2.0 mi NW 10.4 mph - 0.01 in Rain Light Rain
5:46 AM 48.2 °F - 46.4 °F 93% 29.85 in 4.0 mi WNW 8.1 mph - 0.01 in   Overcast
5:53 AM 48.0 °F - 46.9 °F 96% 29.87 in 8.0 mi WNW 9.2 mph - 0.01 in   Overcast
6:24 AM 48.2 °F - 46.4 °F 93% 29.85 in 2.0 mi NW 10.4 mph - 0.01 in Rain Light Rain
6:37 AM 48.2 °F - 46.4 °F 93% 29.85 in 9.0 mi WNW 11.5 mph - 0.01 in   Overcast
6:53 AM 48.0 °F - 46.9 °F 96% 29.87 in 10.0 mi WNW 9.2 mph - 0.01 in   Overcast
7:11 AM 48.2 °F - 46.4 °F 93% 29.85 in 1.8 mi WNW 9.2 mph - 0.00 in Rain Light Rain
7:53 AM 48.9 °F - 48.0 °F 97% 29.87 in 1.0 mi WNW 6.9 mph - 0.01 in   Overcast
8:12 AM 48.2 °F - 46.4 °F 93% 29.84 in 2.0 mi WNW 8.1 mph - 0.00 in   Overcast
8:19 AM 48.2 °F - 48.2 °F 100% 29.84 in 1.2 mi WNW 5.8 mph - 0.01 in Rain Light Rain
8:33 AM 48.2 °F - 48.2 °F 100% 29.84 in 3.0 mi WNW 6.9 mph - 0.01 in   Overcast
8:53 AM 48.9 °F - 48.0 °F 97% 29.86 in 9.0 mi WNW 5.8 mph - 0.01 in   Overcast
9:12 AM 48.2 °F - 46.4 °F 93% 29.84 in 2.0 mi NW 9.2 mph - N/A   Overcast
9:31 AM 48.2 °F - 48.2 °F 100% 29.84 in 1.2 mi WNW 6.9 mph - 0.01 in Rain Light Rain
9:53 AM 48.9 °F - 48.0 °F 97% 29.85 in 1.2 mi NW 9.2 mph - 0.01 in Rain Light Rain
10:50 AM 48.2 °F - 48.2 °F 100% 29.83 in 2.5 mi NNW 6.9 mph - 0.00 in   Overcast
10:53 AM 48.9 °F - 48.0 °F 97% 29.85 in 2.5 mi NW 6.9 mph - 0.00 in   Overcast
11:02 AM 48.2 °F - 46.4 °F 93% 29.83 in 4.0 mi NW 6.9 mph - N/A   Overcast
11:37 AM 50.0 °F - 48.2 °F 94% 29.84 in 1.8 mi NW 4.6 mph - N/A   Overcast
11:46 AM 48.2 °F - 48.2 °F 100% 29.84 in 2.5 mi WNW 4.6 mph - N/A   Overcast
11:53 AM 50.0 °F - 48.0 °F 93% 29.86 in 2.5 mi NW 5.8 mph - 0.01 in   Overcast
12:02 PM 50.0 °F - 48.2 °F 94% 29.84 in 1.5 mi NW 5.8 mph - N/A   Overcast
12:14 PM 50.0 °F - 48.2 °F 94% 29.83 in 3.0 mi NW 6.9 mph - N/A   Overcast
12:41 PM 51.8 °F - 48.2 °F 88% 29.83 in 10.0 mi WNW 5.8 mph - N/A   Overcast
12:53 PM 51.1 °F - 48.0 °F 89% 29.85 in 9.0 mi WNW 6.9 mph - 0.00 in Rain Light Rain
1:18 PM 53.6 °F - 48.2 °F 82% 29.83 in 10.0 mi West 6.9 mph - 0.00 in   Overcast
1:53 PM 53.1 °F - 46.9 °F 80% 29.85 in 10.0 mi WNW 8.1 mph - 0.00 in   Overcast
2:53 PM 55.0 °F - 48.0 °F 77% 29.85 in 10.0 mi NW 6.9 mph - N/A   Overcast
3:14 PM 55.4 °F - 46.4 °F 72% 29.84 in 10.0 mi NW 6.9 mph - N/A   Overcast
3:21 PM 55.4 °F - 46.4 °F 72% 29.84 in 10.0 mi NW 8.1 mph - N/A   Overcast
3:53 PM 55.9 °F - 48.0 °F 75% 29.86 in 10.0 mi North 6.9 mph - N/A   Overcast
4:16 PM 55.4 °F - 46.4 °F 72% 29.85 in 10.0 mi NNW 5.8 mph - N/A   Overcast
4:53 PM 55.9 °F - 46.9 °F 72% 29.86 in 10.0 mi NW 8.1 mph - N/A   Overcast
5:02 PM 55.4 °F - 46.4 °F 72% 29.85 in 10.0 mi NNW 10.4 mph - N/A   Overcast
5:53 PM 54.0 °F - 46.0 °F 75% 29.87 in 10.0 mi NW 6.9 mph - N/A   Overcast
6:53 PM 54.0 °F - 45.0 °F 72% 29.87 in 10.0 mi NNW 6.9 mph - N/A   Overcast
7:53 PM 51.1 °F - 45.0 °F 80% 29.88 in 10.0 mi NNW 9.2 mph - N/A   Overcast
8:53 PM 50.0 °F - 45.0 °F 83% 29.87 in 10.0 mi Calm Calm - N/A   Overcast
9:53 PM 46.9 °F - 45.0 °F 93% 29.88 in 10.0 mi Calm Calm - N/A   Clear
10:53 PM 45.0 °F 41.2 °F 44.1 °F 97% 29.88 in 10.0 mi NNW 6.9 mph - N/A   Partly Cloudy
11:11 PM 46.4 °F 44.3 °F 44.6 °F 93% 29.86 in 10.0 mi North 4.6 mph - N/A   Mostly Cloudy
11:53 PM 46.0 °F 43.9 °F 45.0 °F 96% 29.88 in 10.0 mi NW 4.6 mph - N/A   Overcast